Meeker, CO

4:36 AM MDT on May 28, 2017 (GMT -0600)
Meeker

Weather History for KEEO - July, 2014

Change the Weather History Date:

Monday, July 14, 2014

  Actual Average Record
Temperature  
Mean Temperature 72 °F 67 °F  
Max Temperature 91 °F 86 °F 98 °F (2005)
Min Temperature 53 °F 48 °F 37 °F (1997)
Degree Days  
Heating Degree Days 0 1  
Month to date heating degree days 5 16  
Since 1 June heating degree days 140 160  
Since 1 July heating degree days 5 16  
Cooling Degree Days 7 3  
Month to date cooling degree days 66 29  
Year to date cooling degree days 72 47  
Since 1 June cooling degree days 71 46  
Growing Degree Days 22 (Base 50)    
Moisture  
Dew Point 42 °F    
Average Humidity 43    
Maximum Humidity 72    
Minimum Humidity 13    
Precipitation  
Precipitation 0.00 in 0.03 in 0.10 in (2015)
Month to date precipitation 0.05 0.46  
Year to date precipitation 7.98 7.85  
Sea Level Pressure  
Sea Level Pressure 30.01 in    
Wind  
Wind Speed 6 mph (ENE)    
Max Wind Speed 21 mph    
Max Gust Speed 25 mph    
Visibility 10 miles    
Events      
T = Trace of Precipitation, MM = Missing Value Source: NWS Daily Summary

Daily Weather History Graph

Daily Weather History Graph

Search for Another Location

Airport or City:

Trip Planner

Search our weather history database for the weather conditions in past years. The results will help you decide how hot, cold, wet, or windy it might be!

Date:

Astronomy

Jul. 14, 2014 Rise Set
Actual Time 5:54 AM MDT 8:40 PM MDT
Civil Twilight 5:22 AM MDT 9:11 PM MDT
Nautical Twilight 4:42 AM MDT 9:51 PM MDT
Astronomical Twilight 3:56 AM MDT 10:37 PM MDT
Moon 10:11 PM MDT (7/14) 8:40 AM MDT (7/14)
Length of Visible Light 15h 49m
Length of Day
14h 45m
Waning Gibbous, 92% of the Moon is Illuminated
Jul 14
Waning Gibbous
Jul 18
Last Quarter
Jul 26
New
Aug 3
First Quarter
Aug 10
Full

Hourly Weather History & Observations

Time (MDT) Temp. Dew Point Humidity Pressure Visibility Wind Dir Wind Speed Gust Speed Precip Events Conditions
12:53 AM 61.0 °F 46.0 °F 58% 30.01 in 10.0 mi ENE 5.8 mph - N/A   Clear
1:53 AM 60.1 °F 46.0 °F 60% 30.01 in 10.0 mi East 6.9 mph - N/A   Clear
2:53 AM 60.1 °F 46.0 °F 60% 30.02 in 10.0 mi East 4.6 mph - N/A   Clear
3:53 AM 60.1 °F 46.0 °F 60% 30.04 in 10.0 mi Calm Calm - N/A   Clear
4:53 AM 55.9 °F 46.0 °F 69% 30.06 in 10.0 mi ENE 4.6 mph - N/A   Scattered Clouds
5:53 AM 53.1 °F 45.0 °F 74% 30.08 in 10.0 mi Calm Calm - N/A   Partly Cloudy
6:53 AM 55.9 °F 46.0 °F 69% 30.08 in 10.0 mi Calm Calm - N/A   Clear
7:53 AM 62.1 °F 46.0 °F 56% 30.07 in 10.0 mi East 3.5 mph - N/A   Clear
8:53 AM 69.1 °F 46.0 °F 44% 30.07 in 10.0 mi Calm Calm - N/A   Clear
9:53 AM 73.9 °F 45.0 °F 35% 30.05 in 10.0 mi Calm Calm - N/A   Clear
10:53 AM 80.1 °F 43.0 °F 27% 30.03 in 10.0 mi Variable 3.5 mph - N/A   Clear
11:53 AM 84.9 °F 41.0 °F 21% 30.01 in 10.0 mi WSW 5.8 mph - N/A   Scattered Clouds
2:53 PM 90.0 °F 33.1 °F 13% 29.97 in 10.0 mi NNE 9.2 mph 19.6 mph N/A   Partly Cloudy
4:53 PM 89.1 °F 36.0 °F 15% 29.94 in 10.0 mi NNE 11.5 mph - N/A   Clear
5:53 PM 87.1 °F 36.0 °F 16% 29.95 in 10.0 mi Calm Calm - N/A   Clear
6:53 PM 84.9 °F 39.9 °F 20% 29.93 in 10.0 mi ESE 5.8 mph - N/A   Clear
7:53 PM 82.0 °F 44.1 °F 26% 29.93 in 10.0 mi NE 3.5 mph - N/A   Clear
8:53 PM 78.1 °F 37.0 °F 23% 29.92 in 10.0 mi NE 16.1 mph - N/A   Partly Cloudy
9:53 PM 75.9 °F 39.9 °F 27% 29.97 in 10.0 mi Variable 5.8 mph - N/A   Scattered Clouds
10:53 PM 73.0 °F 42.1 °F 33% 29.99 in 10.0 mi NE 17.3 mph - N/A   Mostly Cloudy
11:53 PM 73.9 °F 41.0 °F 30% 29.99 in 10.0 mi SSE 10.4 mph - N/A   Mostly Cloudy